Theta_e
282 283 283 282 280 280 279 281 278 281 279 282 285 286 287 286 285 284 284 284 283 282 281 281 281 281 281 280 280 280 279 279 279 280 281 282 282 282 283 283 284 283 283 283
280 283 283 280 279 281 281 280 279 279 279 284 287 286 284 285 284 283 283 283 283 282 281 280 280 280 280 280 280 280 278 278 279 280 280 281 281 281 281 282 282 282 281 282
279 281 280 277 279 280 280 281 282 278 283 284 284 286 285 283 284 283 283 283 282 280 279 279 278 280 278 278 279 278 278 278 279 279 279 280 281 280 280 279 281 280 280 281
279 279 273 281 284 283 282 282 282 281 282 283 283 282 283 283 282 283 282 281 279 278 277 277 278 278 279 278 278 277 277 277 278 278 278 279 279 278 279 279 279 280 279 280
277 277 280 281 282 281 281 280 284 282 280 281 282 281 280 283 283 282 280 278 277 277 276 276 276 278 278 277 276 277 277 277 278 278 278 278 278 277 278 278 278 279 280 279
279 275 272 279 284 287 285 276 284 283 281 281 282 278 277 279 279 278 277 277 276 276 275 275 275 276 276 275 275 275 277 277 278 278 277 277 278 277 278 278 278 279 280 278
279 275 278 283 286 287 277 277 284 284 282 282 278 278 279 278 277 277 277 276 276 275 274 273 275 275 275 274 274 276 277 278 277 277 277 278 277 277 277 277 277 277 278 276
277 275 273 286 286 281 283 283 284 283 283 281 279 279 278 277 276 276 274 275 275 274 272 273 274 275 272 272 275 276 277 277 276 276 277 278 276 277 277 276 276 276 275 274
279 279 285 287 285 285 285 284 283 282 283 281 279 277 277 275 275 274 274 273 274 272 273 273 274 274 271 273 275 275 275 275 274 275 275 276 275 275 275 275 274 275 274 272
281 283 283 284 285 285 285 284 285 285 282 281 278 277 275 274 273 272 272 272 273 272 271 272 273 274 273 274 275 274 273 270 271 270 274 273 273 274 273 273 273 274 272 271
281 283 284 284 283 284 284 285 284 283 282 279 278 276 275 274 272 271 272 272 273 273 273 272 273 273 273 273 274 272 272 268 269 269 268 270 271 269 273 269 275 274 273 272
277 283 281 283 284 285 283 282 282 280 278 278 277 276 275 273 273 272 271 272 272 273 272 271 272 272 271 272 272 271 271 269 268 269 268 268 268 269 274 276 277 277 277 275
283 287 285 286 285 284 282 281 281 280 278 276 276 275 275 273 272 273 272 272 271 270 270 270 270 270 269 270 270 270 267 268 268 268 267 268 269 268 267 269 274 275 275 275
287 286 283 284 281 281 280 280 280 277 277 277 276 275 274 271 266 262 262 261 262 266 264 261 262 262 263 264 265 264 263 265 264 264 264 266 266 267 269 265 262 263 268 272
285 286 285 282 281 279 278 278 276 275 275 275 275 274 272 269 266 262 258 257 258 257 257 256 257 259 258 258 258 258 262 262 263 262 263 264 264 266 268 265 264 261 259 266
284 282 282 280 277 277 277 276 275 274 274 274 274 273 272 269 267 264 259 258 261 260 257 254 255 259 258 256 258 260 261 264 263 264 263 264 264 265 266 267 262 260 262 264
281 279 279 277 277 276 276 276 276 275 274 274 273 272 271 270 268 263 258 255 255 256 256 255 258 260 262 261 262 263 261 262 263 265 264 264 264 264 265 266 265 262 260 257
286 284 283 280 278 277 276 276 276 275 274 273 271 267 265 265 264 262 256 253 256 258 258 259 260 264 265 264 265 266 264 263 263 261 263 261 261 261 263 263 263 262 262 263
283 281 280 280 279 278 276 275 275 274 270 267 265 264 262 261 262 258 255 255 255 259 260 264 270 268 268 269 268 265 262 259 261 262 260 260 260 260 261 262 263 260 260 261
278 279 278 277 277 277 275 274 272 269 267 265 262 261 261 258 258 259 257 260 262 264 267 268 268 266 267 267 266 265 261 258 261 259 257 258 255 255 257 259 259 259 258 259
277 277 277 276 273 270 269 269 268 266 263 263 264 263 262 257 255 260 258 263 264 266 269 266 266 265 266 265 264 259 256 255 254 255 255 254 254 256 255 256 256 256 256 259
275 272 270 270 270 266 265 266 267 264 262 259 255 258 259 257 254 257 257 263 265 262 265 265 265 260 263 259 262 256 259 257 255 253 254 254 253 253 254 254 256 257 256 256
269 269 268 268 268 265 263 263 263 264 261 260 260 259 262 264 265 263 261 266 266 263 264 264 261 258 257 253 253 252 252 252 251 251 251 250 250 250 252 256 256 255 256 258
267 267 264 265 266 266 264 259 262 261 260 259 259 259 263 262 259 262 263 261 261 260 260 261 259 260 256 252 252 252 252 251 250 249 251 251 249 249 252 254 256 255 256 256
268 266 266 267 267 266 266 264 262 260 260 261 260 262 263 263 263 262 260 260 262 261 260 259 260 259 253 251 251 251 252 252 253 249 249 248 249 249 250 252 254 255 255 255
269 268 268 268 268 268 268 267 266 264 264 259 257 256 256 258 260 260 259 259 261 260 260 259 256 255 254 253 254 254 256 260 259 258 255 254 251 251 250 252 252 254 256 257
268 268 268 267 267 268 268 267 266 264 263 263 263 260 261 257 257 258 257 256 257 258 258 257 256 257 257 253 253 253 254 255 257 257 255 253 253 252 252 251 251 252 254 254
Wind_Speed
1 2 5 5 7 11 10 15 9 13 13 7 13 15 14 9 9 8 7 6 5 3 1 1 3 4 5 5 6 7 8 9 10 10 10 10 11 11 12 12 12 12 12 12
3 2 1 4 4 11 10 2 6 5 12 6 6 8 8 11 11 9 7 6 6 4 4 4 5 4 4 5 6 7 8 10 10 10 11 10 11 12 12 13 13 12 12 12
6 3 3 7 10 9 6 5 7 9 12 6 4 13 14 12 10 9 7 6 5 5 5 5 5 4 5 5 6 8 9 10 10 10 11 11 11 11 12 12 13 11 12 12
4 3 7 3 2 5 10 5 7 1 1 2 5 6 9 7 8 8 8 7 5 5 5 5 5 5 5 5 7 8 9 10 10 11 11 11 11 11 11 11 12 11 11 12
3 8 7 10 5 7 8 8 6 6 7 9 11 8 7 6 5 6 7 6 6 6 4 5 5 5 4 6 6 8 9 10 11 10 11 11 12 12 11 11 11 11 11 12
3 5 10 3 2 3 4 6 8 10 13 16 7 5 4 6 9 10 9 7 6 6 5 6 5 4 4 7 7 9 10 11 11 10 10 11 11 11 10 10 11 10 10 11
10 2 7 5 3 5 6 8 5 11 13 9 5 2 9 12 10 8 8 7 6 6 5 4 4 5 6 6 9 10 10 10 10 10 10 10 10 9 10 10 11 10 9 10
4 4 10 5 3 7 5 3 6 8 6 10 13 13 12 12 11 9 7 6 5 5 4 3 5 5 5 6 9 9 9 10 10 10 9 9 10 11 11 9 11 11 9 10
10 8 1 2 1 3 5 8 6 7 9 15 14 10 11 10 8 6 6 5 4 5 4 4 5 4 6 8 8 11 10 11 10 11 10 9 9 11 8 8 8 9 7 9
5 3 1 1 2 3 4 6 8 12 15 13 12 12 12 8 7 5 5 5 4 4 5 5 5 7 6 8 9 8 8 8 8 8 11 8 7 6 6 7 7 7 7 8
3 1 4 2 2 6 9 11 14 11 10 13 15 11 10 8 6 5 5 4 4 4 4 5 5 6 7 8 9 9 7 6 7 6 6 8 7 5 6 4 8 8 7 7
7 11 5 5 7 10 13 12 13 16 10 7 10 12 11 8 6 6 5 4 4 4 5 4 5 5 6 7 8 7 7 6 6 6 7 6 5 8 15 13 15 16 19 15
5 11 4 13 10 7 13 12 9 12 12 13 9 10 9 9 6 8 5 5 5 4 4 4 4 5 6 8 7 6 5 6 6 6 6 7 8 7 7 9 13 16 18 19
15 18 10 7 7 12 14 13 15 12 10 10 11 9 8 9 6 6 5 3 2 3 3 2 4 5 5 6 5 5 5 6 4 5 5 6 7 7 5 5 5 6 10 17
4 5 11 15 16 14 14 15 14 11 11 10 8 10 9 9 7 5 2 2 3 3 3 3 5 6 5 4 4 4 4 4 4 4 4 5 5 6 6 3 5 4 4 8
10 15 16 17 15 14 14 11 13 11 9 9 9 8 8 8 7 4 2 3 3 1 2 2 4 5 5 3 4 3 4 6 4 4 4 5 5 6 7 6 4 4 6 7
17 9 13 13 15 15 13 8 11 11 10 10 10 10 10 9 6 4 3 1 3 3 4 2 5 5 4 3 3 2 2 3 6 4 4 5 5 6 6 6 6 5 5 4
9 11 14 18 16 13 10 10 10 11 10 10 9 8 8 7 7 6 4 1 3 2 2 4 4 3 3 4 3 2 2 3 3 3 4 4 5 4 5 6 5 6 6 7
10 13 11 13 13 12 11 11 10 9 9 9 9 8 6 6 6 5 4 4 3 2 4 3 5 4 4 5 3 2 2 3 4 3 3 4 5 5 5 5 6 6 6 7
10 10 13 12 11 12 12 9 10 9 7 9 8 8 7 5 6 6 3 4 4 4 2 2 3 2 3 4 4 2 3 3 3 3 3 4 3 4 4 5 5 6 6 6
12 12 13 12 10 8 8 9 10 10 7 8 9 8 7 5 4 6 3 2 4 4 3 1 1 2 1 3 2 2 2 3 3 3 3 3 4 4 4 5 4 4 5 6
9 9 10 10 10 7 6 7 8 9 8 6 4 6 7 5 4 3 3 4 3 2 2 1 0 2 2 3 2 2 2 3 2 3 3 3 3 3 4 4 4 5 4 5
7 8 9 9 10 9 6 6 6 8 8 7 7 7 5 5 5 4 2 4 3 3 3 2 1 2 1 1 1 1 2 2 3 3 3 3 3 3 3 4 4 4 4 5
8 8 6 7 10 9 8 3 6 6 7 6 6 6 6 4 2 2 2 2 4 3 3 3 3 3 1 1 1 2 3 3 3 3 3 4 3 3 3 4 4 4 4 5
9 8 8 10 9 5 8 8 6 4 5 5 5 5 5 2 4 3 3 3 4 3 3 4 4 4 2 2 2 3 3 3 4 3 3 3 3 3 4 4 4 4 4 4
9 7 6 6 5 6 7 7 6 5 5 3 2 2 2 2 2 2 3 3 3 3 3 2 2 2 2 3 3 4 4 4 4 4 3 3 2 2 3 4 5 5 6 6
5 6 5 3 2 5 6 6 7 6 5 5 4 4 4 3 3 3 3 2 2 2 2 2 2 2 2 2 3 3 3 4 4 2 2 1 2 2 3 4 4 5 5 5
Wind_Direction
326 230 169 210 181 175 191 217 186 251 220 204 204 198 190 154 145 146 150 155 158 179 201 27 360 1 358 10 348 335 336 337 340 337 335 334 339 336 335 333 333 335 332 333
237 215 324 266 189 192 215 176 244 260 258 204 204 116 150 161 153 154 152 151 158 138 87 53 20 5 23 1 346 342 342 338 339 337 337 341 339 341 336 335 331 336 335 333
226 112 220 279 205 196 196 194 179 213 241 151 157 180 172 152 148 151 148 144 133 99 74 54 15 19 18 350 340 347 343 338 336 338 340 342 338 341 337 335 331 334 334 336
159 138 228 254 257 214 206 215 210 222 149 151 132 94 105 105 134 139 133 123 111 92 72 37 16 33 358 353 350 346 343 336 336 338 340 339 339 341 336 333 331 329 332 338
152 219 305 286 188 166 172 251 183 151 111 113 114 84 34 88 91 118 112 107 97 88 75 44 24 9 354 354 348 343 343 336 335 336 336 338 340 337 335 334 330 331 333 343
154 201 216 248 241 153 98 273 180 136 155 150 151 135 191 118 109 98 92 95 100 86 68 49 5 351 5 358 348 347 340 334 332 336 336 334 337 335 331 330 332 329 339 347
206 223 293 246 215 136 150 242 132 159 159 151 112 156 127 115 93 89 97 99 93 80 67 28 359 8 9 350 353 338 334 332 335 336 332 339 334 334 335 337 336 332 355 344
82 185 254 180 122 169 186 37 139 134 120 98 111 111 112 110 108 104 100 89 89 94 68 21 14 23 1 354 339 336 335 339 338 338 338 340 337 342 343 337 340 336 354 347
171 205 234 1 278 64 152 149 157 116 118 129 125 123 125 120 116 120 119 108 93 92 70 33 7 40 3 346 343 341 341 342 339 339 338 341 340 343 336 337 335 338 355 347
119 236 171 154 78 107 114 115 113 120 130 135 130 132 121 126 127 117 110 99 106 95 64 35 12 14 358 352 343 337 338 328 327 335 340 333 334 333 328 335 333 342 350 348
98 61 97 33 118 129 102 103 104 104 120 129 126 128 132 127 127 124 116 112 106 80 65 33 10 8 357 350 344 342 337 321 327 326 327 324 330 320 328 296 339 353 352 350
209 187 153 161 155 134 125 128 125 118 106 97 128 127 128 127 126 128 125 116 93 73 56 29 14 2 353 348 343 340 340 338 329 332 333 327 327 331 338 356 1 5 3 7
166 139 108 127 118 113 120 125 115 115 126 122 113 124 127 128 127 124 105 102 90 70 48 26 15 3 357 350 347 349 334 330 335 339 336 337 339 334 331 336 1 10 8 7
116 108 94 136 144 122 114 107 102 96 103 114 121 116 119 116 98 108 128 146 76 75 65 19 359 343 330 336 346 347 335 331 333 326 325 332 334 326 328 359 345 338 353 3
73 86 126 116 113 112 116 121 115 121 122 119 124 128 130 130 133 148 154 139 112 99 44 15 357 321 318 328 352 342 342 329 329 324 326 326 326 332 338 348 353 325 329 3
101 110 122 125 128 131 131 134 129 139 137 134 131 130 126 127 131 135 134 153 115 153 272 308 303 288 305 334 341 344 331 331 337 333 330 341 335 342 343 349 351 348 352 348
114 113 122 131 144 150 158 147 146 146 142 143 138 135 132 129 125 125 129 108 141 185 223 216 279 302 310 328 340 312 316 330 341 344 347 341 335 346 342 343 356 338 327 310
140 149 158 150 150 147 140 137 139 146 146 138 130 123 126 145 157 161 173 167 62 17 275 273 285 308 323 326 339 330 350 336 333 337 336 343 338 331 344 342 354 348 342 340
129 127 126 136 141 138 138 141 141 126 120 127 130 146 145 139 147 160 144 101 106 135 271 309 331 358 343 339 21 356 357 359 350 343 341 338 350 346 341 343 342 340 338 342
98 103 112 112 121 134 132 122 123 118 124 123 117 126 139 167 163 155 155 174 196 206 262 303 334 343 338 351 8 9 14 359 355 342 340 344 339 333 332 334 339 338 332 335
122 123 123 122 111 96 109 127 128 137 137 138 148 158 161 163 164 150 136 178 246 203 208 217 27 318 324 339 355 23 17 358 357 331 335 324 333 338 332 328 324 327 329 337
130 124 121 122 124 112 111 117 118 127 133 134 113 132 141 157 163 206 232 186 235 191 198 206 241 350 328 338 21 4 349 354 329 329 335 330 321 320 317 314 321 319 321 320
108 118 120 126 133 129 101 101 123 138 141 150 152 162 163 167 168 151 218 227 217 213 216 214 230 293 330 46 2 328 316 314 306 298 293 294 292 302 301 310 308 316 323 325
115 108 103 106 114 118 131 159 140 143 152 160 166 167 152 139 308 237 236 187 188 209 225 216 232 253 270 247 281 281 273 268 272 277 282 287 291 311 327 316 324 318 315 319
121 117 126 135 141 147 136 147 123 124 146 159 168 176 184 183 155 218 180 203 210 210 242 248 249 255 234 243 252 261 263 261 256 248 265 267 289 306 314 317 319 316 314 309
141 145 146 147 148 150 148 155 158 162 149 162 247 212 216 211 187 179 177 201 203 211 236 259 258 265 253 257 257 263 267 280 273 265 253 268 295 314 323 328 325 324 321 320
94 113 122 100 116 146 159 164 157 177 180 167 184 201 193 185 187 171 174 197 222 237 251 266 271 281 281 285 291 297 300 294 290 297 347 350 9 315 323 318 314 312 313 318